Location: Fours
(44.3167°N, 6.7000°E)
Time: 04:48:22
(UTC+00:00)

Cosmos 2297 - Pass Details

Date: 30 November 2020
Orbit: 834 x 860 km, 71.0° (Epoch: 24 January)

Event Time Altitude Azimuth Distance (km) Brightness Sun altitude
Rises 17:00:40 0° 332° (NNW) 3,413 7.0 -11.4°
Reaches altitude 10° 17:03:07 10° 331° (NNW) 2,477 6.3 -11.8°
Maximum altitude 17:08:47 72° 248° (WSW) 897 4.0 -12.8°
Drops below altitude 10° 17:14:27 10° 165° (SSE) 2,478 6.2 -13.7°
Sets 17:16:54 0° 164° (SSE) 3,413 6.9 -14.1°
